OpenBCM V1.08-5-g2f4a (Linux)

Packet Radio Mailbox

IZ3LSV

[San Dona' di P. JN]

 Login: GUEST





  
I0OJJ  > KEPS     06.06.25 02:44l 354 Lines 16795 Bytes #45 (0) @ AMSAT
BID : ORB25157.1
Read: GUEST
Subj: 2Line Orbital Elements 25157.AMSAT
Path: IZ3LSV<IK6IHL<IK7NXU<HB9ON<DK0WUE<PD0LPM<PI8ZTM<IR0AAB<I0OJJ<I0OJJ
Sent: 250606/0025z @:I0OJJ.ITA.EU [Rome] obcm1.08-10-g596e

>From i0ojj%i0ojj.ita.eu@i0ojj.ampr.org Fri Jun  6 02:28:28 2025
Received: from i0ojj.ampr.org by i0ojj.ampr.org (JNOS2.0p.8) with SMTP
	id AA17032814 ; Fri, 06 Jun 2025 02:28:28 +0200
Message-Id: <ORB25157.1@obcm.bbs>
>From: i0ojj@i0ojj.ita.eu
X-JNOS-User-Port: Telnet   (obcm @ 44.134.109.10)  -> Sending message

From: I0OJJ @ I0OJJ.ITA.EU (Gustavo)
To:   KEPS @ AMSAT
X-Info: This message was generated automatically


QST de W1STR

AMSAT Orbital Elements for Amateur Satellites in TLE Format
>From Orbital Analysis Office
New England Sci-Tech STEM Education Center
Natick, MA June 06, 2025
To all radio amateurs


These element sets describe the orbits of various satellites 
in use by the amateur radio community. For details see:
www.amsat.org/keplerian-elements-formats/

A daily update of element sets is available at:
www.amsat.org/tle/daily-bulletin.txt
or without bulletin text:
www.amsat.org/tle/dailytle.txt


AO-07
1 07530U 74089B   25156.24580006 -.00000034  00000-0  80259-4 0  9993
2 07530 101.9928 160.4638 0012552 129.3070 241.9206 12.53689400313281
UO-11
1 14781U 84021B   25156.43571455  .00001429  00000-0  15615-3 0  9996
2 14781  97.7540 122.8862 0007795   2.6731 357.4526 14.89378324201027
AO-27
1 22825U 93061C   25156.44151912  .00000124  00000-0  64652-4 0  9998
2 22825  98.7368 217.9765 0009422 121.6143 238.5960 14.30798279653124
FO-29
1 24278U 96046B   25156.61191522 -.00000003  00000-0  33750-4 0  9990
2 24278  98.5767  51.0252 0349868 353.0847   6.5535 13.53248974422480
NOAA-15
1 25338U 98030A   25156.81474513  .00000230  00000-0  11233-3 0  9991
2 25338  98.5349 182.0367 0010479  17.6253 342.5289 14.26977583407863
GO-32
1 25397U 98043D   25156.54719478  .00000079  00000-0  54417-4 0  9995
2 25397  98.9699 135.5822 0000977 165.4951 194.6255 14.24314309397932
ISS
1 25544U 98067A   25156.85240109  .00009235  00000-0  16944-3 0  9994
2 25544  51.6371   3.2462 0001720 198.1831 161.9097 15.50024388513405
NO-44
1 26931U 01043C   25156.38456952  .00000210  00000-0  10952-3 0  9993
2 26931  67.0490 138.6870 0006037 275.5856  84.4557 14.31732707236500
SO-50
1 27607U 02058C   25156.50286100  .00001127  00000-0  15792-3 0  9996
2 27607  64.5520 213.1205 0055899 334.9470  24.8924 14.81615717208837
CO-55
1 27844U 03031E   25156.46389817  .00000369  00000-0  17994-3 0  9998
2 27844  98.6754 164.7907 0009301 192.1001 167.9956 14.23993950138052
CO-57
1 27848U 03031J   25156.55097560  .00000296  00000-0  14994-3 0  9999
2 27848  98.6782 164.8854 0008832 210.0963 149.9709 14.23328863137841
RS-22
1 27939U 03042A   25156.87881068  .00001189  00000-0  19613-3 0  9996
2 27939  98.3278 326.2411 0011948  27.9949 108.1578 14.72347713160287
NOAA-18
1 28654U 05018A   25156.79995189  .00000201  00000-0  12986-3 0  9997
2 28654  98.8423 236.3187 0015083 137.4622 222.7722 14.13609446 33214
CO-58
1 28895U 05043F   25156.36890221  .00001604  00000-0  26959-3 0  9999
2 28895  98.2490 300.6667 0013582 324.5581  35.4722 14.71004809 46323
CO-65
1 32785U 08021C   25156.74745375  .00004119  00000-0  29936-3 0  9994
2 32785  97.7828 127.8820 0008744 219.1451 140.9143 15.04392470928570
CO-66
1 32791U 08021J   25156.42089271  .00009826  00000-0  47776-3 0  9994
2 32791  97.7268 136.3693 0004279 153.7223 206.4228 15.18625323929863
RS-30
1 32953U 08025A   25156.78045906  .00000012  00000-0  14552-4 0  9999
2 32953  82.5034 229.5396 0020168  57.1988 303.1031 12.43164921773064
NOAA-19
1 33591U 09005A   25156.80579969  .00000180  00000-0  12006-3 0  9998
2 33591  98.9973 221.4891 0013944  19.2502 340.9194 14.13372421841578
SRMSAT
1 37841U 11058D   25156.43996579  .00000425  00000-0  87414-4 0  9998
2 37841  19.9699 179.6024 0011845  20.3463 114.8586 14.11434903704749
ZACUBE-1
1 39417U 13066B   25156.44106699  .00004239  00000-0  36928-3 0  9997
2 39417  97.7800 113.4756 0046198  66.8524 293.7555 14.96617460624296
Delfi-N3xt
1 39428U 13066N   25156.52766137  .00006623  00000-0  67447-3 0  9996
2 39428  97.8353  74.2226 0085575  15.2074 345.1685 14.88332336618654
GOMX-1
1 39430U 13066Q   25156.87244532  .00001631  00000-0  25988-3 0  9995
2 39430  97.6845  15.7651 0131810 203.7313 155.7779 14.67624797614867
LO-74
1 39440U 13066AA  25156.58084378  .00002741  00000-0  28090-3 0  9994
2 39440  97.8488 101.1687 0061614 191.8169 168.1607 14.89910885620845
AO-73
1 39444U 13066AE  25156.41744751  .00006031  00000-0  45206-3 0  9992
2 39444  97.7833 118.3150 0043957  43.7599 316.7095 15.02281614622963
DTUSAT-2
1 40030U 14033W   25156.37685616  .00005767  00000-0  37655-3 0  9993
2 40030  98.0547 127.9922 0011187  77.3509 282.8968 15.08215815595764
EO-80
1 40032U 14033Y   25156.46373088  .00005944  00000-0  38729-3 0  9992
2 40032  98.0426 127.7436 0009260  25.4134 334.7547 15.08298641595754
LILACSAT-2
1 40908U 15049K   25156.83809280  .00009867  00000-0  25869-3 0  9990
2 40908  97.5059 177.0942 0009907 163.0108 197.1471 15.38836197537659
IO-86
1 40931U 15052B   25151.18580175  .00001241  00000-0  78118-4 0  9996
2 40931   6.0006  24.0987 0012733 338.8432  21.1169 14.78805930523047
Horyu-4
1 41340U 16012D   25156.38581088  .00018555  00000-0  49723-3 0  9994
2 41340  30.9954 160.1407 0005996   9.4580 350.6178 15.36726980512148
Lapan A3
1 41603U 16040E   25156.83767325  .00002915  00000-0  10330-3 0  9992
2 41603  97.1366 161.5923 0009103 285.5757  74.4480 15.29836039497213
CAS-2T
1 41847U 16066G   25156.45351605  .00001640  00000-0  24184-3 0  9994
2 41847  98.4198 230.9525 0346042 190.7898 168.5735 14.43466153450429
CAS-4B
1 42759U 17034B   25156.82552208  .00057964  00000-0  61633-3 0  9996
2 42759  43.0076 344.2529 0021512 266.0873  93.7532 15.62901834442010
CAS-4A
1 42761U 17034D   25156.79782382  .00061104  00000-0  61742-3 0  9995
2 42761  43.0118 341.6148 0022799 270.1303  89.6950 15.64135641442037
TechnoSat
1 42829U 17042E   25156.51256998  .00001946  00000-0  15382-3 0  9995
2 42829  97.3905 325.4233 0012955 290.9362  69.0476 15.01698988430111
AO-91
1 43017U 17073E   25156.60309622  .00006678  00000-0  34370-3 0  9997
2 43017  97.5246  27.4773 0172800 179.7489 180.3856 15.04646737408616
S-Net D
1 43186U 18014G   25156.46136645  .00004361  00000-0  25911-3 0  9995
2 43186  97.5637  59.4095 0007516 232.6052 127.4495 15.11797369401750
S-Net B
1 43187U 18014H   25156.46670647  .00004084  00000-0  24300-3 0  9994
2 43187  97.5643  59.3864 0008362 227.8496 132.2024 15.11776511401757
S-Net A
1 43188U 18014J   25156.46176162  .00004366  00000-0  25934-3 0  9995
2 43188  97.5650  59.5309 0008181 228.3837 131.6693 15.11802412401751
S-Net C
1 43189U 18014K   25156.60146613  .00004100  00000-0  24386-3 0  9996
2 43189  97.5666  59.6829 0009909 220.7939 139.2550 15.11773684400321
Ten-Koh
1 43677U 18084G   25156.46151127  .00002240  00000-0  18263-3 0  9995
2 43677  98.0871 328.5548 0005121 276.9498  83.1142 15.00561435359625
PO-101
1 43678U 18084H   25156.78205961  .00002149  00000-0  18582-3 0  9999
2 43678  98.1052 332.7616 0006656 309.7629  50.3005 14.98331086359814
QO-100
1 43700U 18090A   25156.65880056  .00000155  00000-0  00000+0 0  9999
2 43700   0.0169   8.4297 0002172  99.3972  49.4417  1.00272334 24145
MinXSS-2
1 43758U 18099A   25156.13250704  .00016618  00000-0  65467-3 0  9998
2 43758  97.5020 222.1533 0012735 165.0611 195.1005 15.25600420356299
AO-95
1 43770U 18099N   25156.42775265  .00007998  00000-0  40564-3 0  9990
2 43770  97.4923 214.5593 0009798 218.3926 141.6611 15.17168447355928
RANGE-A
1 43773U 18099R   25156.55584253  .00004284  00000-0  27416-3 0  9998
2 43773  97.4483 205.0744 0010972 198.2447 161.8390 15.09054756355617
MOVE-II
1 43780U 18099Y   25156.14750784  .00256334  00000-0  17052-2 0  9994
2 43780  97.4652 231.4371 0006170 191.0365 169.0765 15.74664720357109
SNUSat 2
1 43782U 18099AA  25156.37826478  .00007092  00000-0  38725-3 0  9991
2 43782  97.4598 211.2961 0012828 161.7967 198.3727 15.14560592355860
SnugLite
1 43784U 18099AC  25156.12926324  .00008933  00000-0  44873-3 0  9993
2 43784  97.4413 210.6031 0004488 148.9684 211.1815 15.17497400355968
ITASat 1
1 43786U 18099AE  25156.11442939  .00005474  00000-0  31407-3 0  9995
2 43786  97.4566 210.5606 0013564 215.9955 144.0364 15.12880993355788
EAGLET 1
1 43790U 18099AJ  25156.37295343  .00004352  00000-0  27868-3 0  9993
2 43790  97.4763 210.7842 0011722 197.0901 162.9935 15.09021017355436
ESEO
1 43792U 18099AL  25156.53945310  .00002045  00000-0  15765-3 0  9999
2 43792  97.4492 204.2611 0013180 171.7891 188.3553 15.02609344355218
CSIM
1 43793U 18099AM  25156.70421476  .00180774  00000-0  12693-2 0  9993
2 43793  97.4808 234.2917 0005782 174.7755 185.3571 15.73616280357037
JO-97
1 43803U 18099AX  25156.11024768  .00012329  00000-0  56228-3 0  9996
2 43803  97.4666 215.2266 0008607 151.6281 208.5425 15.20745746356097
Suomi 100
1 43804U 18099AY  25156.11750185  .00010883  00000-0  53219-3 0  9996
2 43804  97.4731 214.5432 0013331 157.4782 202.7040 15.18314804356024
ISAT
1 43879U 18111D   25156.50488083  .00014511  00000-0  50502-3 0  9995
2 43879  97.5963  70.8077 0007835 197.9278 162.1686 15.29774997351051
UWE-4
1 43880U 18111E   25156.47441718  .00010710  00000-0  42108-3 0  9997
2 43880  97.5907  69.2839 0010559 216.8972 143.1541 15.25804129353001
Sparrow
1 43881U 18111F   25156.55550012  .00015088  00000-0  50581-3 0  9992
2 43881  97.6106  73.7214 0004718 242.7388 117.3373 15.31000686353177
Prox-1
1 44339U 19036A   25156.50485073  .00008387  00000-0  10526-2 0  9995
2 44339  23.9962  88.5623 0007070  28.5501 331.5383 14.79888331317417
SONATE
1 44400U 19038Q   25156.62216677  .00240186  23932-4  70769-3 0  9995
2 44400  97.6888 183.1108 0006216 210.0015 150.0903 15.92614301328942
